Home   Weather   Mabalacat   Past weeks

Flag for Philippines Past Weather in Mabalacat, Philippines — Yesterday and Last 2 Weeks

Now
79 °F

Partly cloudy.


Feels Like: 82 °F
Forecast: 76 / 94 °F
Wind: 3 mph from North

Location: Clarkfield Pampanga International Airport

Current Time: Apr 28, 2017 at 4:57:57 am

Latest Report: Apr 28, 2017 at 4:00 am


Visibility: N/A

Pressure: 29.83 "Hg

Humidity: 84%

Dew Point: 73 °F

Location of MabalacatLocation

Past Weather in Mabalacat — Graph

°F

Mabalacat Temperature Yesterday

Maximum temperature yesterday: 97 °F (at 2:00 pm)
Minimum temperature yesterday: 81 °F (at 1:00 am)
Average temperature yesterday: 86 °F

High & Low Weather Summary for the Past Weeks

 TemperatureHumidityPressure
High99 °F (Apr 13, 4:00 pm)94% (Apr 18, 5:00 am)30.01 "Hg (Apr 18, 5:00 am)
Low77 °F (Apr 13, 5:00 am)28% (Apr 13, 3:00 pm)29.74 "Hg (Apr 26, 4:00 pm)
Average86 °F66%29.87 "Hg
* Reported Apr 13 2:00 am — Apr 28 2:00 am, Mabalacat, Weather by CustomWeather, © 2017

Note: Actual official high and low records may vary slightly from our data, if they occured in-between our weather recording intervals... More about our weather records

Advertising

Mabalacat Weather History for the Previous 24 Hours

Scroll right to see more
 ConditionsComfort  
Time TempWeatherWind HumidityBarometerVisibility
2:00 am
Fri, Apr 28
81 °FPartly cloudy.3 mph79%29.86 "HgN/A
1:00 am81 °FPartly cloudy.1 mph79%29.86 "HgN/A
12:00 am81 °FPassing clouds.1 mph79%29.92 "HgN/A
11:00 pm
Thu, Apr 27
81 °FPassing clouds.2 mph79%29.92 "HgN/A
10:00 pm81 °FPassing clouds.2 mph79%29.89 "HgN/A
9:00 pm81 °FPassing clouds.2 mph79%29.86 "HgN/A
8:00 pm86 °FMostly cloudy.7 mph66%29.83 "HgN/A
7:00 pm88 °FMostly cloudy.3 mph66%29.80 "HgN/A
6:00 pm90 °FBroken clouds.9 mph63%29.77 "HgN/A
5:00 pm86 °FBroken clouds.2 mph70%29.77 "HgN/A
3:00 pm97 °FThundershowers. Broken clouds.2 mph44%29.77 "HgN/A
2:00 pm97 °FBroken clouds.6 mph42%29.77 "HgN/A
1:00 pm95 °FBroken clouds.2 mph47%29.80 "HgN/A
12:00 pm93 °FBroken clouds.6 mph49%29.83 "HgN/A
11:00 am91 °FBroken clouds.16 mph56%29.86 "HgN/A
10:00 am91 °FPartly sunny.7 mph56%29.86 "HgN/A
9:00 am88 °FPartly sunny.7 mph62%29.89 "HgN/A
8:00 am84 °FPartly sunny.10 mph74%29.86 "HgN/A
7:00 am82 °FPartly sunny.6 mph79%29.86 "HgN/A
6:00 am81 °FBroken clouds.3 mph84%29.83 "HgN/A
5:00 am81 °FPartly cloudy.3 mph84%29.83 "HgN/A
4:00 am81 °FPartly cloudy.5 mph84%29.83 "HgN/A
Weather by CustomWeather, © 2017

See weather overviewHow to use our weather pages